[[{"header":{"parameterUnit":"m.s-1","parameterCategory":1,"la1":30.2991,"la2":30.254,"lo1":-89.0895,"lo2":-89.0444,"dy":0.0017,"dx":0.0017,"nx":28,"ny":28,"refTime":"2025-03-26T03:00:00:Z","depth":0,"parameterNumber":2,"parameterNumberName":"U-component_of_WINDS"},"data":[0,0,0,0,0,0,0,0,0,0,0,0,0,0,0,0,0,0,0,0,0,0,0,0,0,0,0,0,0,0,0,0,0,0,0,0,0,0,0,0,0,0,0,0,0,0,0,0,0,0,0,0,0,0,0,0,0,0,-1.9308,-1.9309,0,-1.9341,-1.9341,-1.9342,-1.9288,-1.9286,-1.9284,-1.9283,-1.9317,-1.9319,-1.9322,0,0,0,0,0,0,0,0,0,0,0,0,0,-1.9201,-1.9204,-1.9308,-1.9309,-1.9309,-1.9341,-1.9341,-1.9342,-1.9288,-1.9286,-1.9284,-1.9282,-1.9316,-1.9319,-1.9322,0,0,0,0,0,0,0,0,0,0,0,0,0,-1.9242,-1.9204,-1.9308,-1.9286,-1.9285,-1.9341,-1.9341,-1.9342,-1.9289,-1.9286,-1.9283,-1.9281,-1.9315,-1.9319,-1.9323,-1.9402,0,0,-1.9334,-1.9336,0,0,0,0,0,0,0,0,-1.924,-1.9246,-1.9289,-1.9288,-1.9286,-1.9308,-1.9316,-1.9362,-1.929,-1.9287,-1.9283,-1.9279,-1.9316,-1.932,-1.9332,-1.9403,-1.9405,-1.9335,-1.9337,-1.9339,-1.934,0,0,0,0,0,0,0,-1.9237,-1.9245,-1.9321,-1.929,-1.9288,-1.9275,-1.9278,-1.9324,-1.9317,-1.9287,-1.9283,-1.9288,-1.9315,-1.9328,-1.9332,-1.9405,-1.9335,-1.9338,-1.9341,-1.9342,-1.9544,-1.9547,0,0,0,0,0,0,-1.9237,-1.9243,-1.932,-1.9322,-1.9256,-1.9279,-1.9283,-1.9303,-1.9316,-1.9315,-1.929,-1.9285,-1.9323,-1.9328,-1.9333,-1.9427,-1.9339,-1.9343,-1.9345,-1.9541,-1.9545,-1.9548,0,0,0,0,0,0,-1.9235,-1.9244,-1.9319,-1.9281,-1.929,-1.9284,-1.9308,-1.9306,-1.9319,-1.9318,-1.9317,-1.9305,-1.9321,-1.9328,-1.9385,-1.9427,-1.9344,-1.9348,-1.9537,-1.9542,-1.9546,-1.9615,0,0,0,0,0,0,-1.9232,-1.9244,-1.9274,-1.9282,-1.9292,-1.937,-1.9311,-1.9308,-1.9326,-1.932,-1.9332,-1.9331,-1.9319,-1.938,-1.9389,-1.9431,-1.9351,-1.9534,-1.9539,-1.9545,-1.9609,-1.9621,-1.9631,0,0,0,0,0,-1.9228,-1.9292,-1.9275,-1.9285,-1.9329,-1.9372,-1.9378,-1.9362,-1.9329,-1.9359,-1.9359,-1.9331,-1.9421,-1.9386,-1.9396,-1.944,-1.9531,-1.9538,-1.9544,-1.9603,-1.9618,-1.9631,0,0,0,0,0,0,-1.9288,-1.9292,-1.9274,-1.9342,-1.9357,-1.9363,-1.94,-1.9379,-1.9404,-1.9397,-1.9377,-1.938,-1.9442,-1.9447,-1.9407,-1.9518,-1.9471,-1.948,-1.9512,-1.9526,-1.9538,-1.9535,-1.9354,0,0,0,0,0,-1.9309,-1.9344,-1.9346,-1.9405,-1.9414,-1.9406,-1.9425,-1.9411,-1.9426,-1.9433,-1.9436,-1.9452,-1.9484,-1.9506,-1.9535,-1.9609,-1.9611,-1.9645,-1.9656,-1.9666,-1.9674,-1.9714,-1.9728,-1.957,-1.957,-1.957,0,0,-1.9353,-1.9359,-1.9382,-1.9418,-1.9428,-1.9465,-1.9412,-1.9453,-1.948,-1.9439,-1.9493,-1.9497,-1.9513,-1.958,-1.9609,-1.9586,-1.9718,-1.9674,-1.9682,-1.9685,-1.9722,-1.9737,-1.9751,-1.9575,-1.9574,-1.9573,0,0,-1.9451,-1.946,-1.951,-1.9522,-1.9538,-1.9532,-1.9545,-1.9555,-1.9555,-1.961,-1.958,-1.9612,-1.9667,-1.968,-1.9694,-1.9799,-1.9774,-1.9809,-1.9869,-1.9908,-1.9921,-1.9932,-1.9969,-1.9983,-1.9817,-1.9818,-1.9818,0,-1.9503,-1.9557,-1.9539,-1.9583,-1.9599,-1.9564,-1.9615,-1.9627,-1.9653,-1.9665,-1.9638,-1.9707,-1.9716,-1.9785,-1.9811,-1.9823,-1.9837,-1.9807,-1.992,-1.9931,-1.9941,-1.9977,-1.9991,-1.9822,-1.9821,-1.9821,-1.982,0,-1.9621,-1.9659,-1.9698,-1.9723,-1.9744,-1.9791,-1.9781,-1.9805,-1.979,-1.9788,-1.9844,-1.9853,-1.9884,-1.99,-1.9886,-1.9967,-1.9952,-1.9924,-1.9876,-1.9961,-1.9994,-2.0007,-1.9828,-1.9826,-1.9825,-1.9824,0,0,-1.9756,-1.9772,-1.9786,-1.9798,-1.9813,-1.9842,-1.9889,-1.9919,-1.9939,-1.9958,-1.9997,-2.0045,-2.0019,-2.0035,-2.0022,-2.0057,-2.0139,-2.0023,-2.0024,-2.0045,-2.023,-2.0251,-2.0267,-2.0123,-2.0126,-2.0128,-2.0228,0,-1.9854,-1.9933,-1.9919,-1.9996,-2.0031,-1.9999,-2.0039,-2.0053,-2.0053,-2.0083,-2.0082,-2.0117,-2.0079,-2.0089,-2.0122,-2.0122,-2.0176,-2.0115,-2.0159,-2.0161,-2.0155,-2.0284,-2.0307,-2.0401,-2.0241,-2.0243,-2.0245,0,-1.9978,-2.0002,-2.0083,-2.0093,-2.0108,-2.0144,-2.0171,-2.02,-2.0216,-2.0213,-2.0231,-2.0213,-2.0259,-2.0211,-2.0275,-2.0234,-2.0251,-2.0255,-2.0258,-2.0261,-2.0208,-2.0291,-2.0431,-2.0445,-2.0265,-2.0264,-2.0262,0,-2.0069,-2.0121,-2.0176,-2.0187,-2.0201,-2.0227,-2.0234,-2.0248,-2.0267,-2.0291,-2.0303,-2.0332,-2.0348,-2.0371,-2.0361,-2.0327,-2.0427,-2.0378,-2.0426,-2.0426,-2.0448,-2.0446,-2.0592,-2.046,-2.046,-2.046,-2.0459,0,-2.018,-2.023,-2.0217,-2.0251,-2.0307,-2.0291,-2.0347,-2.035,-2.0362,-2.0397,-2.0371,-2.0403,-2.0388,-2.042,-2.0412,-2.0467,-2.0474,-2.0473,-2.0471,-2.0475,-2.0476,-2.0486,-2.0479,-2.0463,-2.0462,-2.0462,-2.0461,0,-2.029,-2.0284,-2.0341,-2.035,-2.0353,-2.0394,-2.0402,-2.0434,-2.0432,-2.0475,-2.0485,-2.0481,-2.0518,-2.051,-2.055,-2.0545,-2.0613,-2.0603,-2.0608,-2.0605,-2.0653,-2.0649,-2.0811,-2.0831,-2.0686,-2.0687,-2.0688,0,-2.0361,-2.0399,-2.0412,-2.0433,-2.0442,-2.0476,-2.0496,-2.0482,-2.0503,-2.0525,-2.0554,-2.0588,-2.0615,-2.0674,-2.0676,-2.0706,-2.0696,-2.0751,-2.07,-2.0704,-2.0696,-2.0694,-2.0698,-2.076,-2.0762,-2.0764,-2.0765,0,-2.0487,-2.0482,-2.0511,-2.0539,-2.0563,-2.0585,-2.0604,-2.0623,-2.061,-2.0636,-2.0673,-2.0693,-2.0734,-2.0768,-2.0797,-2.0805,-2.0783,-2.0781,-2.0793,-2.0798,-2.0799,-2.0799,-2.0634,-2.0777,-2.0776,-2.0775,-2.0774,-2.0773,-2.0579,-2.0612,-2.0626,-2.0659,-2.0673,-2.0691,-2.0722,-2.0723,-2.0754,-2.0786,-2.0776,-2.0818,-2.0834,-2.087,-2.0881,-2.0914,-2.0893,-2.0912,-2.0916,-2.0921,-2.0927,-2.0795,-2.0919,-2.0919,-2.0919,-2.0918,-2.0918,0,-2.0704,-2.0712,-2.0742,-2.077,-2.0797,-2.0774,-2.0794,-2.0818,-2.0855,-2.0872,-2.0898,-2.0941,-2.0974,-2.0979,-2.101,-2.1036,-2.1027,-2.1044,-2.1042,-2.1044,-2.0943,-2.0929,-2.1051,-2.1051,-2.1051,-2.1051,-2.1051,-2.1051,-2.0772,-2.0825,-2.0822,-2.0883,-2.089,-2.0931,-2.0944,-2.0962,-2.0975,-2.1023,-2.1051,-2.1053,-2.1065,-2.1098,-2.1127,-2.1128,-2.1141,-2.1162,-2.1159,-2.1065,-2.1051,-2.1039,-2.1025,-2.1165,-2.1166,-2.1257,-2.1258,-2.1259]},{"header":{"parameterUnit":"m.s-1","parameterCategory":1,"la1":30.2991,"la2":30.254,"lo1":-89.0895,"lo2":-89.0444,"dy":0.0017,"dx":0.0017,"nx":28,"ny":28,"refTime":"2025-03-26T03:00:00:Z","depth":0,"parameterNumber":3,"parameterNumberName":"V-component_of_WINDS"},"data":[0,0,0,0,0,0,0,0,0,0,0,0,0,0,0,0,0,0,0,0,0,0,0,0,0,0,0,0,0,0,0,0,0,0,0,0,0,0,0,0,0,0,0,0,0,0,0,0,0,0,0,0,0,0,0,0,0,0,-0.025,-0.025,0,-0.0238,-0.0238,-0.0237,-0.0236,-0.0236,-0.0236,-0.0236,-0.0223,-0.0223,-0.0222,0,0,0,0,0,0,0,0,0,0,0,0,0,-0.0272,-0.0272,-0.025,-0.025,-0.025,-0.0238,-0.0238,-0.0237,-0.0236,-0.0236,-0.0236,-0.0236,-0.0223,-0.0223,-0.0222,0,0,0,0,0,0,0,0,0,0,0,0,0,-0.0261,-0.0271,-0.025,-0.0248,-0.0247,-0.0238,-0.0238,-0.0237,-0.0236,-0.0236,-0.0236,-0.0236,-0.0224,-0.0223,-0.0222,-0.0215,0,0,-0.022,-0.022,0,0,0,0,0,0,0,0,-0.0262,-0.026,-0.0248,-0.0248,-0.0247,-0.0238,-0.024,-0.023,-0.0236,-0.024,-0.0236,-0.0236,-0.0228,-0.0227,-0.0224,-0.0214,-0.0213,-0.022,-0.022,-0.0219,-0.0219,0,0,0,0,0,0,0,-0.0263,-0.0261,-0.0245,-0.0248,-0.0248,-0.0247,-0.0245,-0.0238,-0.0233,-0.024,-0.024,-0.0238,-0.0228,-0.0225,-0.0224,-0.0213,-0.022,-0.022,-0.0219,-0.0219,-0.0194,-0.0194,0,0,0,0,0,0,-0.0264,-0.0262,-0.0246,-0.0245,-0.0255,-0.0246,-0.0245,-0.0241,-0.0233,-0.0232,-0.0238,-0.0238,-0.0226,-0.0225,-0.0224,-0.0213,-0.0219,-0.0219,-0.0218,-0.0195,-0.0194,-0.0194,0,0,0,0,0,0,-0.0264,-0.0263,-0.0246,-0.0253,-0.0251,-0.0246,-0.0242,-0.0241,-0.0238,-0.0232,-0.0231,-0.0236,-0.0226,-0.0225,-0.0216,-0.0213,-0.0219,-0.0218,-0.0195,-0.0194,-0.0194,-0.0193,0,0,0,0,0,0,-0.0265,-0.0263,-0.026,-0.0253,-0.0251,-0.024,-0.0241,-0.024,-0.0237,-0.0237,-0.023,-0.0229,-0.0226,-0.0217,-0.0216,-0.0212,-0.0217,-0.0195,-0.0195,-0.0194,-0.0193,-0.0192,-0.0192,0,0,0,0,0,-0.0266,-0.0261,-0.026,-0.0258,-0.0247,-0.024,-0.0238,-0.0235,-0.0236,-0.0233,-0.0229,-0.0229,-0.0213,-0.0217,-0.0215,-0.0211,-0.0195,-0.0195,-0.0194,-0.0193,-0.0193,-0.0192,0,0,0,0,0,0,-0.0268,-0.026,-0.0259,-0.0252,-0.0246,-0.0239,-0.0236,-0.0234,-0.0229,-0.0229,-0.0225,-0.0224,-0.0216,-0.0212,-0.0216,-0.0202,-0.0204,-0.0203,-0.0204,-0.0204,-0.0203,-0.0204,-0.0217,0,0,0,0,0,-0.0267,-0.0262,-0.0255,-0.0249,-0.0246,-0.0241,-0.0238,-0.0236,-0.023,-0.0228,-0.0223,-0.0218,-0.0211,-0.0207,-0.0201,-0.0193,-0.019,-0.0189,-0.0188,-0.0187,-0.0187,-0.018,-0.0179,-0.0192,-0.0192,-0.0192,0,0,-0.0266,-0.0261,-0.0258,-0.0249,-0.0245,-0.0239,-0.0239,-0.0233,-0.0228,-0.0227,-0.0219,-0.0215,-0.0208,-0.02,-0.0196,-0.0197,-0.0182,-0.0187,-0.0186,-0.0186,-0.018,-0.0178,-0.0177,-0.0192,-0.0192,-0.0192,0,0,-0.0261,-0.0257,-0.0251,-0.0247,-0.024,-0.0236,-0.0234,-0.0227,-0.0225,-0.0216,-0.0215,-0.0209,-0.0198,-0.0193,-0.0189,-0.018,-0.0179,-0.0178,-0.0175,-0.0169,-0.0168,-0.0167,-0.0163,-0.0162,-0.0178,-0.0178,-0.0178,0,-0.0261,-0.0252,-0.0248,-0.0242,-0.0237,-0.0235,-0.0228,-0.0224,-0.0215,-0.0212,-0.0213,-0.0199,-0.0195,-0.0184,-0.0182,-0.0179,-0.0176,-0.0179,-0.0168,-0.0167,-0.0166,-0.0162,-0.0161,-0.0177,-0.0177,-0.0177,-0.0177,0,-0.0252,-0.0245,-0.0241,-0.0232,-0.0227,-0.0221,-0.0215,-0.0211,-0.0209,-0.0205,-0.0196,-0.019,-0.0182,-0.0179,-0.0177,-0.0168,-0.0168,-0.0169,-0.0171,-0.0165,-0.0161,-0.016,-0.0177,-0.0177,-0.0177,-0.0177,0,0,-0.0249,-0.0237,-0.0235,-0.0231,-0.0222,-0.0217,-0.0209,-0.0201,-0.0197,-0.0191,-0.0184,-0.0174,-0.0174,-0.0169,-0.0167,-0.0162,-0.0154,-0.0163,-0.0162,-0.0161,-0.0141,-0.0141,-0.0139,-0.0153,-0.0153,-0.0152,-0.0142,0,-0.0242,-0.0229,-0.0225,-0.0214,-0.0207,-0.0204,-0.0198,-0.0191,-0.0187,-0.018,-0.0176,-0.0168,-0.0169,-0.0166,-0.0161,-0.0156,-0.015,-0.0157,-0.0146,-0.0146,-0.0148,-0.0137,-0.0137,-0.0127,-0.014,-0.014,-0.014,0,-0.0234,-0.0226,-0.0215,-0.0205,-0.0202,-0.0197,-0.0188,-0.0182,-0.0174,-0.0171,-0.0165,-0.0163,-0.0154,-0.0157,-0.0144,-0.0149,-0.0144,-0.0141,-0.014,-0.0139,-0.0142,-0.0135,-0.0124,-0.0122,-0.0138,-0.0138,-0.0138,0,-0.0232,-0.0219,-0.021,-0.0206,-0.0196,-0.0191,-0.0187,-0.0179,-0.0174,-0.0166,-0.0162,-0.0154,-0.0149,-0.0142,-0.0137,-0.014,-0.0125,-0.0127,-0.0122,-0.0122,-0.0119,-0.0119,-0.0106,-0.0116,-0.0116,-0.0116,-0.0116,0,-0.0225,-0.0218,-0.0209,-0.0203,-0.0195,-0.0189,-0.0181,-0.0176,-0.0169,-0.0161,-0.0158,-0.0152,-0.0145,-0.0137,-0.0133,-0.0123,-0.0121,-0.0118,-0.0117,-0.0118,-0.0118,-0.0115,-0.0115,-0.0116,-0.0116,-0.0116,-0.0116,0,-0.0222,-0.0216,-0.0205,-0.0195,-0.0193,-0.0187,-0.0178,-0.0172,-0.0167,-0.0158,-0.0155,-0.0147,-0.0138,-0.0132,-0.012,-0.0117,-0.0106,-0.0105,-0.0108,-0.0108,-0.0102,-0.0102,-0.0086,-0.0084,-0.0096,-0.0096,-0.0096,0,-0.0218,-0.0212,-0.0201,-0.0196,-0.0191,-0.0183,-0.0177,-0.0171,-0.0165,-0.0155,-0.015,-0.014,-0.0132,-0.0117,-0.011,-0.01,-0.0099,-0.0094,-0.0098,-0.0098,-0.0098,-0.0098,-0.0097,-0.0093,-0.0093,-0.0093,-0.0093,0,-0.0211,-0.0208,-0.02,-0.019,-0.0184,-0.0176,-0.0168,-0.0164,-0.0156,-0.015,-0.014,-0.0133,-0.012,-0.011,-0.01,-0.0094,-0.0092,-0.0092,-0.009,-0.0091,-0.0093,-0.0091,-0.0106,-0.0092,-0.0092,-0.0092,-0.0092,-0.0093,-0.0207,-0.0201,-0.0192,-0.0183,-0.0176,-0.0168,-0.0162,-0.0155,-0.0147,-0.0136,-0.0133,-0.0122,-0.0112,-0.0098,-0.0092,-0.0083,-0.0084,-0.0081,-0.0081,-0.008,-0.0079,-0.0094,-0.0082,-0.0082,-0.0082,-0.0082,-0.0082,0,-0.02,-0.0193,-0.0185,-0.0173,-0.0166,-0.0164,-0.0155,-0.0148,-0.0139,-0.013,-0.0122,-0.0109,-0.0099,-0.0091,-0.008,-0.0074,-0.0073,-0.0072,-0.0072,-0.007,-0.008,-0.0082,-0.0073,-0.0073,-0.0073,-0.0073,-0.0073,-0.0073,-0.0195,-0.0185,-0.018,-0.0166,-0.0159,-0.0148,-0.0143,-0.0136,-0.0128,-0.0115,-0.0106,-0.01,-0.0091,-0.008,-0.007,-0.0067,-0.0063,-0.0062,-0.006,-0.0069,-0.007,-0.0071,-0.0073,-0.0061,-0.0061,-0.0051,-0.005,-0.005]}]]